Location: De Platvoet
(52.2667°N, 6.1667°E)
Time: 20:52:07
(UTC+00:00)

BREEZE-M DEB (TANK) - Pass Details

Date: 15 May 2026
Orbit: 262 x 12018 km, 49.5° (Epoch: 6 June)

Event Time Altitude Azimuth Distance (km) Brightness Sun altitude
Rises 21:15:12 0° 260° (W) 2,825 6.3 -12.8°
Reaches altitude 10° 21:18:01 10° 254° (WSW) 1,389 4.6 -13.0°
Maximum altitude 21:20:27 41° 180° (S) 418 1.3 -13.2°
Enters shadow 21:20:43 39° 155° (SSE) 433 1.3 -13.2°
